SCP
0 0 0 0 0 0 -0 0 0 0 0 0 0 0 0 0 0 0 0 0 0 0 0 0 0 0 0 0 0 0 0 0 0 0 0 0 0 0 0 0 0 0 0 0
0 0 0 0 0 0 0 0 0 0 0 0 0 0 0 0 0 0 0 0 0 0 0 0 0 0 0 0 0 0 0 0 0 0 0 0 0 0 0 0 0 0 0 0
0 0 0 0 0 -0 0 0 0 0 0 0 0 0 0 0 0 0 0 0 0 0 0 0 0 0 0 0 0 0 0 0 0 0 0 0 0 0 0 0 0 0 0 0
0 0 0 0 -0 -0 0 0 0 0 0 0 0 0 0 0 0 0 0 0 0 0 0 0 0 0 0 0 0 0 0 0 0 0 0 0 0 0 0 0 0 0 0 0
0 0 0 0 -0 -0 -0 0 0 0 0 0 0 0 0 0 0 0 0 0 0 0 0 0 0 0 0 0 0 0 0 0 0 0 0 0 0 0 0 0 0 0 0 0
0 0 0 0 -0 -0 -0 0 0 0 0 0 0 0 0 0 0 0 0 0 0 0 0 0 0 0 0 0 0 0 0 0 0 0 0 0 0 0 0 0 0 0 0 0
0 0 0 0 -0 -0 -0 0 0 0 0 0 0 0 0 0 0 0 0 0 0 0 0 0 0 0 0 0 0 0 0 0 0 0 0 0 0 0 0 0 0 0 0 0
0 0 0 -0 -0 0 -0 -0 0 0 0 0 0 0 0 0 0 0 0 0 0 0 0 0 0 0 0 0 0 0 0 0 0 0 0 0 0 0 0 0 0 0 0 0
-0 -0 0 0 -0 -0 -0 0 -0 0 0 0 0 0 0 0 0 0 0 0 0 0 0 0 0 0 0 0 0 0 0 0 0 0 0 0 0 0 0 0 0 0 0 0
0 -0 -0 -0 0 -0 -0 -0 -0 0 0 0 0 0 0 0 0 0 0 0 0 0 0 0 0 0 0 0 0 0 0 0 0 0 0 0 0 0 0 0 0 0 0 0
0 0 -0 0 -0 -0 -0 -0 -0 -0 0 0 0 0 0 0 0 0 0 0 0 0 0 0 0 0 0 0 0 0 0 0 0 0 0 0 0 0 0 0 0 0 0 0
0 0 -0 -0 -0 0 -0 -0 0 0 0 0 0 0 0 0 0 0 0 0 0 0 0 0 0 0 0 0 0 0 0 0 0 0 0 0 0 0 0 -0 0 0 0 0
0 0 0 -0 -0 0 0 -0 0 -0 -0 0 0 0 0 0 0 0 0 0 0 0 0 0 0 0 0 0 0 0 0 0 0 0 0 0 0 0 0 -0 -0 0 0 0
0 0 0 -0 -0 -0 0 0 -0 -0 0 0 0 0 0 0 0 0 0 0 0 0 0 0 0 0 0 0 0 0 0 0 0 0 0 0 0 0 0 0 0 0 0 0
0 0 0 -0 -0 -0 -0 0 -0 -0 -0 0 0 0 0 -0 0 0 0 0 0 0 0 0 0 0 0 0 0 0 0 0 0 0 0 0 0 0 0 0 0 0 0 0
0 0 0 0 0 0 0 -0 -0 0 0 0 0 0 0 0 0 0 0 0 0 0 0 0 0 0 0 0 0 0 0 0 0 1 1 1 1 1 0 0 0 0 0 0
0 0 0 0 0 0 0 0 -0 -0 0 0 0 0 0 -0 0 0 0 0 0 0 0 0 0 0 0 0 0 0 0 0 0 0 1 1 1 1 0 0 0 0 1 1
0 0 0 0 0 0 0 0 0 -0 -0 0 0 0 0 0 0 0 0 0 0 0 0 0 0 0 0 0 0 0 0 1 1 1 0 2 2 1 1 1 1 1 1 1
0 0 0 0 0 0 -0 0 0 0 -0 0 -0 0 0 0 0 0 0 0 0 0 0 0 0 0 0 0 1 1 1 1 1 1 1 1 2 2 1 1 1 1 1 1
0 0 0 0 0 -0 -0 0 0 0 0 0 -0 0 0 0 0 0 0 0 0 0 0 0 0 0 0 0 0 0 1 1 0 1 1 1 1 1 1 1 1 1 1 1
0 0 0 0 0 0 0 -0 -0 0 0 0 0 0 0 0 0 0 0 0 0 0 0 0 0 0 0 0 0 1 1 1 1 0 1 1 1 1 1 1 1 1 1 0
0 0 0 0 0 0 0 0 0 0 0 0 0 0 0 0 0 -0 -0 0 0 0 0 0 0 1 0 0 0 0 1 1 1 1 1 1 1 1 1 1 1 0 0 0
0 0 0 0 0 0 0 0 0 0 -0 -0 0 0 0 0 0 0 0 0 0 0 0 0 0 0 0 0 0 0 0 1 1 1 1 1 1 0 0 0 0 0 0 0
0 0 0 0 0 0 0 0 0 0 0 0 0 0 0 0 0 0 0 -0 -0 0 0 0 0 0 0 0 0 0 0 0 0 0 0 0 0 0 0 0 0 0 0 0
0 0 0 0 0 0 0 0 0 0 0 0 0 0 0 0 0 0 0 -0 -0 0 0 0 0 0 0 0 0 0 0 0 0 0 0 0 0 0 0 0 0 0 0 0
0 0 0 0 0 0 0 0 0 0 0 0 0 0 0 0 0 0 0 0 0 0 -0 0 0 0 0 0 0 0 0 0 0 0 0 0 0 0 0 0 0 0 0 0
0 0 0 0 0 0 0 0 0 0 0 0 0 -0 0 0 0 0 0 0 0 -0 0 0 0 0 0 0 0 0 0 0 0 0 0 0 0 0 0 0 0 0 0 0
Wind_Speed_500mb
24 22 25 27 25 24 18 17 11 4 12 25 31 32 44 49 46 28 18 13 38 25 34 48 45 49 42 61 58 59 39 22 26 43 45 47 49 42 39 21 22 24 18 8
21 19 22 21 22 22 18 15 23 13 13 13 25 27 42 33 40 35 24 18 17 22 25 29 47 41 46 47 47 51 48 23 27 39 24 27 41 47 48 42 31 32 25 23
20 23 23 19 20 22 15 13 7 14 18 15 20 28 34 43 42 34 27 18 9 19 21 21 24 44 30 38 51 54 55 37 40 34 38 33 43 43 40 45 28 32 28 32
21 24 23 18 18 19 12 8 2 5 6 11 11 10 11 35 43 42 32 22 27 23 19 24 28 39 31 34 39 46 38 44 39 41 12 52 45 48 51 51 47 39 33 31
18 18 17 17 18 18 7 13 10 5 21 13 18 14 22 21 25 36 43 30 32 20 18 7 26 32 32 31 27 43 41 32 37 41 28 21 39 50 51 50 50 50 40 35
17 16 18 19 17 14 7 8 10 13 5 10 12 12 11 14 6 19 31 23 31 24 26 5 11 13 10 9 28 32 38 30 29 40 41 38 39 39 34 31 33 29 37 28
17 18 20 19 17 12 9 9 9 10 10 8 5 6 12 17 9 16 20 12 20 21 13 17 20 13 12 11 15 24 28 36 26 28 35 50 30 42 42 36 35 36 29 26
19 19 19 17 16 16 9 15 8 7 12 12 18 25 17 17 20 23 24 23 18 20 18 16 14 16 13 22 23 18 17 29 23 28 30 23 38 29 30 43 39 41 38 34
19 18 18 18 19 19 15 12 11 11 12 6 15 15 16 16 12 14 22 11 16 15 17 18 29 25 23 21 22 14 22 14 17 23 42 49 30 36 32 28 35 40 50 42
22 19 20 20 21 19 18 16 17 12 13 26 20 19 15 10 13 13 1 9 11 22 25 30 28 30 27 29 36 21 28 22 29 22 28 32 21 39 46 38 21 43 44 50
22 21 20 22 21 19 19 17 17 17 15 35 36 32 29 24 15 13 19 10 14 16 26 34 24 25 32 29 34 36 31 25 25 28 29 35 22 32 49 27 40 25 36 41
26 24 23 22 22 22 23 18 18 18 24 31 31 35 33 36 39 27 17 15 10 14 12 20 26 22 25 34 29 23 31 34 27 25 28 8 25 36 45 43 35 45 45 41
22 22 23 24 25 24 26 23 18 16 22 45 41 36 27 42 52 41 22 11 4 8 18 17 9 19 25 30 36 28 31 27 19 23 31 32 31 23 24 25 36 33 35 37
31 32 32 30 28 27 27 23 19 15 14 14 9 6 11 10 29 50 52 26 13 23 29 17 9 14 17 19 27 37 21 29 29 30 26 21 44 40 43 33 26 26 31 39
40 42 38 36 34 31 30 28 29 30 20 12 33 41 18 28 28 34 39 34 33 30 20 11 12 11 6 18 10 23 41 19 30 24 38 32 32 39 43 39 32 23 28 38
48 49 47 40 37 28 19 10 9 31 40 7 6 12 5 9 33 32 24 21 20 24 13 14 19 20 11 18 29 24 19 13 13 4 6 12 17 14 23 32 27 27 32 38
54 45 43 27 25 29 19 9 7 2 19 8 7 5 6 27 37 18 12 13 13 15 18 17 27 18 13 18 26 26 3 11 25 25 16 14 16 7 20 25 26 32 33 37
47 43 19 15 16 18 32 32 32 25 16 9 6 5 8 36 29 15 17 11 14 16 12 17 17 22 17 12 28 7 11 16 19 18 24 15 8 11 19 25 31 37 39 43
42 27 10 9 21 17 15 19 24 23 12 5 8 4 6 36 27 15 23 27 12 7 9 10 7 14 14 13 9 16 13 14 20 21 18 19 13 16 23 26 29 30 36 40
30 10 5 9 11 15 8 19 19 27 12 12 8 7 3 33 32 17 10 15 6 3 9 8 10 15 4 6 16 19 20 21 18 19 24 26 24 24 26 27 26 26 31 36
6 5 7 15 12 19 9 6 8 12 7 14 13 10 4 22 19 12 22 6 6 5 7 7 8 13 5 19 21 16 12 10 12 17 19 22 25 27 29 27 26 29 34 41
12 14 20 9 9 6 3 5 5 8 5 4 4 6 10 9 14 13 9 5 6 7 12 8 6 6 13 21 19 12 5 5 4 7 14 20 26 29 31 33 37 39 41 53
7 7 5 5 4 2 4 8 1 4 5 6 15 10 8 8 7 4 4 9 6 5 7 8 5 12 12 17 14 9 3 4 11 17 22 26 30 34 37 43 44 52 65 68
7 11 10 12 8 5 7 9 9 19 14 30 17 6 9 9 10 2 6 5 6 4 9 7 11 21 14 15 12 6 6 9 15 21 26 31 35 38 39 43 52 63 71 71
13 16 12 7 22 37 26 26 2 2 4 13 11 9 9 5 4 5 2 7 8 3 6 7 18 23 11 9 7 8 12 13 17 19 24 31 37 42 50 49 51 56 60 60
16 14 10 42 22 33 35 37 24 18 10 6 11 6 4 5 5 3 9 7 9 8 12 27 21 15 4 4 5 9 11 14 19 23 28 33 39 42 45 46 46 48 51 57
13 12 28 34 28 42 44 38 32 20 12 8 10 9 11 11 6 8 7 2 5 21 21 21 10 5 7 13 13 22 24 27 33 39 43 46 50 48 49 48 43 42 43 49
Wind_Direction_500mb
320 315 318 322 320 320 333 293 256 279 162 210 217 225 222 235 234 233 248 276 242 214 210 202 206 209 205 199 197 199 202 205 181 195 203 218 202 202 206 221 193 253 298 227
323 321 330 327 325 333 325 281 284 264 204 232 218 226 233 230 233 232 219 214 231 219 215 212 217 207 196 188 192 199 196 224 201 188 180 209 224 212 208 220 237 216 228 237
333 330 331 322 323 328 337 291 274 183 212 271 304 216 214 219 231 250 235 250 213 196 205 215 209 208 200 189 200 199 191 214 218 204 207 191 209 211 222 222 214 232 220 257
336 331 327 328 330 329 337 249 55 337 298 188 275 242 273 220 218 223 209 234 236 207 202 198 211 206 172 205 191 193 198 219 203 242 231 202 202 209 206 218 225 229 240 221
338 341 342 340 340 344 311 303 317 298 275 273 245 198 213 234 225 226 220 236 214 214 240 231 187 212 179 176 188 199 209 214 214 222 213 222 211 218 214 223 226 235 233 246
339 333 331 331 331 358 317 313 287 281 259 246 245 215 220 216 319 250 264 253 237 218 224 25 354 343 72 114 177 183 202 207 201 217 219 224 234 219 211 217 227 234 230 229
330 331 336 337 333 335 308 293 303 286 275 251 266 284 276 262 247 291 277 306 258 239 333 285 249 232 171 189 181 171 185 209 200 217 210 222 230 218 226 231 210 222 232 225
317 322 337 333 332 331 304 288 307 308 289 335 277 248 278 266 252 249 261 256 272 306 277 223 222 219 223 210 186 195 187 189 201 221 205 218 217 195 208 207 218 218 219 233
303 317 312 333 327 320 315 282 280 296 290 53 358 303 294 287 262 249 236 247 277 257 238 213 208 209 200 185 167 189 197 237 234 195 228 223 221 178 196 211 228 218 220 221
309 290 289 290 310 314 309 289 281 276 255 279 273 261 303 312 282 277 288 339 250 216 217 218 209 219 207 214 181 174 187 202 207 206 221 235 218 212 178 214 209 206 211 218
317 306 295 290 285 300 305 300 271 251 266 280 273 260 260 248 238 276 27 265 200 219 221 219 210 218 213 231 204 177 187 189 196 213 214 234 219 203 209 222 224 220 205 213
310 310 303 297 289 289 294 289 283 272 264 263 279 269 260 248 252 266 260 319 330 342 250 213 220 216 211 210 218 188 211 206 191 211 206 146 193 210 213 235 224 221 226 226
326 320 313 306 297 288 282 271 272 273 281 290 264 268 273 246 237 228 244 220 317 96 358 318 290 234 219 208 226 199 224 215 225 187 226 220 222 224 235 237 243 247 236 229
321 312 306 298 293 289 278 267 266 243 282 279 301 265 279 247 227 215 216 240 289 300 315 282 265 223 230 235 225 230 223 188 221 219 231 211 228 237 245 250 246 234 227 209
315 305 291 294 288 291 275 260 250 240 239 294 300 295 280 233 219 201 210 239 263 277 283 239 232 241 248 238 281 234 221 224 216 227 219 222 238 231 235 230 231 222 203 189
314 304 301 290 277 273 271 279 232 223 220 244 281 327 283 175 173 165 174 232 239 247 261 254 248 248 253 225 225 226 230 237 278 290 344 233 254 257 212 213 210 199 184 176
322 315 304 279 250 228 207 269 175 197 191 234 266 255 264 158 155 149 175 206 235 245 254 238 255 228 213 250 233 199 230 262 261 263 272 254 225 249 200 193 182 171 165 164
322 320 301 258 238 217 237 246 262 258 201 236 267 241 212 173 168 141 192 227 236 229 247 251 243 217 221 249 231 313 282 282 265 248 237 248 271 185 174 165 167 164 161 159
321 313 301 195 201 203 232 228 239 233 208 264 234 239 146 172 160 149 190 218 190 287 229 229 253 227 220 214 296 288 293 288 280 281 245 230 223 180 164 163 167 166 162 162
319 302 224 224 220 219 228 168 160 191 216 229 262 243 181 181 170 166 180 232 184 213 236 201 238 241 213 323 309 292 280 272 265 249 225 212 200 186 174 170 166 170 166 163
344 246 244 248 231 172 180 203 201 183 225 214 223 239 220 177 187 151 218 171 199 222 204 224 223 213 120 328 321 310 289 247 235 247 245 222 199 179 165 157 156 158 157 155
289 271 282 259 194 162 204 198 213 218 250 232 255 267 193 157 191 201 182 174 194 266 327 225 237 88 345 346 337 320 302 289 241 181 178 173 166 162 157 152 151 153 150 154
342 291 268 231 163 326 346 359 140 244 250 230 203 186 193 174 210 224 212 182 206 105 245 207 117 18 349 352 335 333 324 112 121 125 131 139 143 143 147 142 143 145 152 153
318 327 355 16 346 331 247 249 235 252 199 203 194 242 221 174 183 133 237 136 139 235 232 142 58 5 351 349 2 38 74 115 128 129 134 138 139 137 136 139 150 151 145 143
12 24 352 320 293 306 337 358 85 51 300 144 175 169 194 175 199 228 284 199 225 340 19 27 355 345 331 339 12 64 80 104 117 122 133 133 130 128 132 135 137 140 139 141
18 3 311 337 338 4 10 15 30 34 9 62 39 17 329 78 323 213 16 345 12 354 323 318 324 308 208 160 57 75 75 89 107 116 127 128 129 128 128 128 131 134 135 136
15 342 2 351 357 7 17 29 51 30 30 37 20 32 3 304 16 21 354 350 294 315 328 304 293 224 115 120 99 95 102 116 120 120 121 118 118 115 116 114 118 123 130 138
Wind_Speed_850mb
24 22 25 27 25 24 18 17 11 4 12 25 31 32 44 49 46 28 18 13 38 25 34 48 45 49 42 61 58 59 39 22 26 43 45 47 49 42 39 21 22 24 18 8
21 19 22 21 22 22 18 15 23 13 13 13 25 27 42 33 40 35 24 18 17 22 25 29 47 41 46 47 47 51 48 23 27 39 24 27 41 47 48 42 31 32 25 23
20 23 23 19 20 22 15 13 7 14 18 15 20 28 34 43 42 34 27 18 9 19 21 21 24 44 30 38 51 54 55 37 40 34 38 33 43 43 40 45 28 32 28 32
21 24 23 18 18 19 12 8 2 5 6 11 11 10 11 35 43 42 32 22 27 23 19 24 28 39 31 34 39 46 38 44 39 41 12 52 45 48 51 51 47 39 33 31
18 18 17 17 18 18 7 13 10 5 21 13 18 14 22 21 25 36 43 30 32 20 18 7 26 32 32 31 27 43 41 32 37 41 28 21 39 50 51 50 50 50 40 35
17 16 18 19 17 14 7 8 10 13 5 10 12 12 11 14 6 19 31 23 31 24 26 5 11 13 10 9 28 32 38 30 29 40 41 38 39 39 34 31 33 29 37 28
17 18 20 19 17 12 9 9 9 10 10 8 5 6 12 17 9 16 20 12 20 21 13 17 20 13 12 11 15 24 28 36 26 28 35 50 30 42 42 36 35 36 29 26
19 19 19 17 16 16 9 15 8 7 12 12 18 25 17 17 20 23 24 23 18 20 18 16 14 16 13 22 23 18 17 29 23 28 30 23 38 29 30 43 39 41 38 34
19 18 18 18 19 19 15 12 11 11 12 6 15 15 16 16 12 14 22 11 16 15 17 18 29 25 23 21 22 14 22 14 17 23 42 49 30 36 32 28 35 40 50 42
22 19 20 20 21 19 18 16 17 12 13 26 20 19 15 10 13 13 1 9 11 22 25 30 28 30 27 29 36 21 28 22 29 22 28 32 21 39 46 38 21 43 44 50
22 21 20 22 21 19 19 17 17 17 15 35 36 32 29 24 15 13 19 10 14 16 26 34 24 25 32 29 34 36 31 25 25 28 29 35 22 32 49 27 40 25 36 41
26 24 23 22 22 22 23 18 18 18 24 31 31 35 33 36 39 27 17 15 10 14 12 20 26 22 25 34 29 23 31 34 27 25 28 8 25 36 45 43 35 45 45 41
22 22 23 24 25 24 26 23 18 16 22 45 41 36 27 42 52 41 22 11 4 8 18 17 9 19 25 30 36 28 31 27 19 23 31 32 31 23 24 25 36 33 35 37
31 32 32 30 28 27 27 23 19 15 14 14 9 6 11 10 29 50 52 26 13 23 29 17 9 14 17 19 27 37 21 29 29 30 26 21 44 40 43 33 26 26 31 39
40 42 38 36 34 31 30 28 29 30 20 12 33 41 18 28 28 34 39 34 33 30 20 11 12 11 6 18 10 23 41 19 30 24 38 32 32 39 43 39 32 23 28 38
48 49 47 40 37 28 19 10 9 31 40 7 6 12 5 9 33 32 24 21 20 24 13 14 19 20 11 18 29 24 19 13 13 4 6 12 17 14 23 32 27 27 32 38
54 45 43 27 25 29 19 9 7 2 19 8 7 5 6 27 37 18 12 13 13 15 18 17 27 18 13 18 26 26 3 11 25 25 16 14 16 7 20 25 26 32 33 37
47 43 19 15 16 18 32 32 32 25 16 9 6 5 8 36 29 15 17 11 14 16 12 17 17 22 17 12 28 7 11 16 19 18 24 15 8 11 19 25 31 37 39 43
42 27 10 9 21 17 15 19 24 23 12 5 8 4 6 36 27 15 23 27 12 7 9 10 7 14 14 13 9 16 13 14 20 21 18 19 13 16 23 26 29 30 36 40
30 10 5 9 11 15 8 19 19 27 12 12 8 7 3 33 32 17 10 15 6 3 9 8 10 15 4 6 16 19 20 21 18 19 24 26 24 24 26 27 26 26 31 36
6 5 7 15 12 19 9 6 8 12 7 14 13 10 4 22 19 12 22 6 6 5 7 7 8 13 5 19 21 16 12 10 12 17 19 22 25 27 29 27 26 29 34 41
12 14 20 9 9 6 3 5 5 8 5 4 4 6 10 9 14 13 9 5 6 7 12 8 6 6 13 21 19 12 5 5 4 7 14 20 26 29 31 33 37 39 41 53
7 7 5 5 4 2 4 8 1 4 5 6 15 10 8 8 7 4 4 9 6 5 7 8 5 12 12 17 14 9 3 4 11 17 22 26 30 34 37 43 44 52 65 68
7 11 10 12 8 5 7 9 9 19 14 30 17 6 9 9 10 2 6 5 6 4 9 7 11 21 14 15 12 6 6 9 15 21 26 31 35 38 39 43 52 63 71 71
13 16 12 7 22 37 26 26 2 2 4 13 11 9 9 5 4 5 2 7 8 3 6 7 18 23 11 9 7 8 12 13 17 19 24 31 37 42 50 49 51 56 60 60
16 14 10 42 22 33 35 37 24 18 10 6 11 6 4 5 5 3 9 7 9 8 12 27 21 15 4 4 5 9 11 14 19 23 28 33 39 42 45 46 46 48 51 57
13 12 28 34 28 42 44 38 32 20 12 8 10 9 11 11 6 8 7 2 5 21 21 21 10 5 7 13 13 22 24 27 33 39 43 46 50 48 49 48 43 42 43 49
Wind_Direction_850mb
320 315 318 322 320 320 333 293 256 279 162 210 217 225 222 235 234 233 248 276 242 214 210 202 206 209 205 199 197 199 202 205 181 195 203 218 202 202 206 221 193 253 298 227
323 321 330 327 325 333 325 281 284 264 204 232 218 226 233 230 233 232 219 214 231 219 215 212 217 207 196 188 192 199 196 224 201 188 180 209 224 212 208 220 237 216 228 237
333 330 331 322 323 328 337 291 274 183 212 271 304 216 214 219 231 250 235 250 213 196 205 215 209 208 200 189 200 199 191 214 218 204 207 191 209 211 222 222 214 232 220 257
336 331 327 328 330 329 337 249 55 337 298 188 275 242 273 220 218 223 209 234 236 207 202 198 211 206 172 205 191 193 198 219 203 242 231 202 202 209 206 218 225 229 240 221
338 341 342 340 340 344 311 303 317 298 275 273 245 198 213 234 225 226 220 236 214 214 240 231 187 212 179 176 188 199 209 214 214 222 213 222 211 218 214 223 226 235 233 246
339 333 331 331 331 358 317 313 287 281 259 246 245 215 220 216 319 250 264 253 237 218 224 25 354 343 72 114 177 183 202 207 201 217 219 224 234 219 211 217 227 234 230 229
330 331 336 337 333 335 308 293 303 286 275 251 266 284 276 262 247 291 277 306 258 239 333 285 249 232 171 189 181 171 185 209 200 217 210 222 230 218 226 231 210 222 232 225
317 322 337 333 332 331 304 288 307 308 289 335 277 248 278 266 252 249 261 256 272 306 277 223 222 219 223 210 186 195 187 189 201 221 205 218 217 195 208 207 218 218 219 233
303 317 312 333 327 320 315 282 280 296 290 53 358 303 294 287 262 249 236 247 277 257 238 213 208 209 200 185 167 189 197 237 234 195 228 223 221 178 196 211 228 218 220 221
309 290 289 290 310 314 309 289 281 276 255 279 273 261 303 312 282 277 288 339 250 216 217 218 209 219 207 214 181 174 187 202 207 206 221 235 218 212 178 214 209 206 211 218
317 306 295 290 285 300 305 300 271 251 266 280 273 260 260 248 238 276 27 265 200 219 221 219 210 218 213 231 204 177 187 189 196 213 214 234 219 203 209 222 224 220 205 213
310 310 303 297 289 289 294 289 283 272 264 263 279 269 260 248 252 266 260 319 330 342 250 213 220 216 211 210 218 188 211 206 191 211 206 146 193 210 213 235 224 221 226 226
326 320 313 306 297 288 282 271 272 273 281 290 264 268 273 246 237 228 244 220 317 96 358 318 290 234 219 208 226 199 224 215 225 187 226 220 222 224 235 237 243 247 236 229
321 312 306 298 293 289 278 267 266 243 282 279 301 265 279 247 227 215 216 240 289 300 315 282 265 223 230 235 225 230 223 188 221 219 231 211 228 237 245 250 246 234 227 209
315 305 291 294 288 291 275 260 250 240 239 294 300 295 280 233 219 201 210 239 263 277 283 239 232 241 248 238 281 234 221 224 216 227 219 222 238 231 235 230 231 222 203 189
314 304 301 290 277 273 271 279 232 223 220 244 281 327 283 175 173 165 174 232 239 247 261 254 248 248 253 225 225 226 230 237 278 290 344 233 254 257 212 213 210 199 184 176
322 315 304 279 250 228 207 269 175 197 191 234 266 255 264 158 155 149 175 206 235 245 254 238 255 228 213 250 233 199 230 262 261 263 272 254 225 249 200 193 182 171 165 164
322 320 301 258 238 217 237 246 262 258 201 236 267 241 212 173 168 141 192 227 236 229 247 251 243 217 221 249 231 313 282 282 265 248 237 248 271 185 174 165 167 164 161 159
321 313 301 195 201 203 232 228 239 233 208 264 234 239 146 172 160 149 190 218 190 287 229 229 253 227 220 214 296 288 293 288 280 281 245 230 223 180 164 163 167 166 162 162
319 302 224 224 220 219 228 168 160 191 216 229 262 243 181 181 170 166 180 232 184 213 236 201 238 241 213 323 309 292 280 272 265 249 225 212 200 186 174 170 166 170 166 163
344 246 244 248 231 172 180 203 201 183 225 214 223 239 220 177 187 151 218 171 199 222 204 224 223 213 120 328 321 310 289 247 235 247 245 222 199 179 165 157 156 158 157 155
289 271 282 259 194 162 204 198 213 218 250 232 255 267 193 157 191 201 182 174 194 266 327 225 237 88 345 346 337 320 302 289 241 181 178 173 166 162 157 152 151 153 150 154
342 291 268 231 163 326 346 359 140 244 250 230 203 186 193 174 210 224 212 182 206 105 245 207 117 18 349 352 335 333 324 112 121 125 131 139 143 143 147 142 143 145 152 153
318 327 355 16 346 331 247 249 235 252 199 203 194 242 221 174 183 133 237 136 139 235 232 142 58 5 351 349 2 38 74 115 128 129 134 138 139 137 136 139 150 151 145 143
12 24 352 320 293 306 337 358 85 51 300 144 175 169 194 175 199 228 284 199 225 340 19 27 355 345 331 339 12 64 80 104 117 122 133 133 130 128 132 135 137 140 139 141
18 3 311 337 338 4 10 15 30 34 9 62 39 17 329 78 323 213 16 345 12 354 323 318 324 308 208 160 57 75 75 89 107 116 127 128 129 128 128 128 131 134 135 136
15 342 2 351 357 7 17 29 51 30 30 37 20 32 3 304 16 21 354 350 294 315 328 304 293 224 115 120 99 95 102 116 120 120 121 118 118 115 116 114 118 123 130 138